Flag Weather past 2 weeks in Brno, Czech Republic

Now
41 °F

Fog.


Feels Like: 41 °F
Forecast: 35 / 42 °F
Wind: 2 mph from East

Location: Brno / Turany

Current Time: Nov 23, 2014 at 7:15:29 AM

Latest Report: Nov 23, 2014 at 6:00 AM


Visibility: 5 mi

Pressure: 30.39 "Hg

Humidity: 88%

Dew point: 37 °F

Location of BrnoLocation

Historic Weather in Brno — Graph

°F

Brno temperature yesterday

Maximum temperature yesterday: 42 °F (at 2:00 PM)
Minimum temperature yesterday: 39 °F (at 1:00 AM)
Average temperature yesterday: 40 °F

Past Weeks' High & Low Weather Summary

 TemperatureHumidityPressure
High60 °F (Nov 11, 3:00 PM)98% (Nov 14, 9:00 AM)30.39 "Hg (Nov 14, 9:00 AM)
Low39 °F (Nov 19, 2:00 AM)66% (Nov 21, 6:00 PM)29.69 "Hg (Nov 16, 6:00 AM)
Average48 °F86%29.99 "Hg
* Reported Nov 8 6:00 AM — Nov 23 6:00 AM, Brno, Weather by CustomWeather, © 2014

Note: Actual official high and low records may vary slightly from our data, if they occured in-between our weather recording intervals... More about our weather records

Advertising

Brno weather history for previous 24 hours

 ConditionsComfort  
Time TempWeatherWind HumidityBarometerVisibility
6:00 AM
Nov 23
41 °FFog.2 mph88%30.39 "Hg5 mi
5:00 AM41 °FFog.1 mph86%30.37 "Hg5 mi
4:00 AM41 °FOvercast.2 mph85%30.37 "Hg6 mi
3:00 AM41 °FOvercast.2 mph84%30.37 "Hg6 mi
2:00 AM41 °FOvercast.2 mph84%30.38 "Hg6 mi
1:00 AM41 °FOvercast.2 mph82%30.37 "Hg9 mi
12:00 AM41 °FOvercast.3 mph82%30.37 "Hg9 mi
11:00 PM
Nov 22
41 °FOvercast.2 mph84%30.36 "Hg6 mi
10:00 PM41 °FOvercast.2 mph82%30.35 "Hg6 mi
9:00 PM41 °FOvercast.3 mph83%30.35 "Hg6 mi
8:00 PM41 °FOvercast.3 mph83%30.35 "Hg6 mi
7:00 PM41 °FOvercast.3 mph81%30.35 "Hg10 mi
6:00 PM41 °FOvercast.2 mph81%30.35 "Hg7 mi
5:00 PM41 °FOvercast.2 mph78%30.34 "Hg9 mi
4:00 PM41 °FOvercast.2 mph78%30.33 "Hg11 mi
3:00 PM42 °FOvercast.2 mph71%30.32 "Hg12 mi
2:00 PM42 °FOvercast.3 mph71%30.32 "Hg12 mi
1:00 PM42 °FOvercast.2 mph71%30.32 "Hg12 mi
12:00 PM42 °FOvercast.2 mph75%30.34 "Hg9 mi
11:00 AM41 °FOvercast.2 mph82%30.34 "Hg7 mi
10:00 AM40 °FFog.2 mph86%30.34 "Hg5 mi
9:00 AM40 °FFog.3 mph90%30.32 "Hg4 mi
8:00 AM40 °FFog.3 mph89%30.32 "Hg4 mi
7:00 AM39 °FFog.3 mph89%30.30 "Hg6 mi
Weather by CustomWeather, © 2014

See weather overviewHow to use our weather pages